Overview Statistics Trail Chart Weather Telemetry Raw packets
 

This is the latest recevied weather packets stored in our database for station/object HB9FHL-13. If no packets are shown the sender has not sent any weather packets the latest 10 day(s).

<< 122 123 124 125 126 127 128 >>
Time Temp. Humidity Pressure Rain* Wind** Luminosity Snow
1787906948 21.67° C - 1016.3 hPa 0 mm - - -
1787906652 22.78° C - 1012.4 hPa 0 mm - - -
1787906647 22.78° C - 1012.4 hPa 0 mm - - -
1787906347 22.22° C - 1009.1 hPa 0 mm - - -
1787905742 25° C - 1013.7 hPa 0 mm - - -
1787905446 24.44° C - 1012.4 hPa 0 mm - - -
1787905442 24.44° C - 1012.4 hPa 0 mm - - -
1787905146 24.44° C - 1012.9 hPa 0 mm - - -
1787905142 24.44° C - 1012.9 hPa 0 mm - - -
1787904845 24.44° C - 1012.6 hPa 0 mm - - -
1787904841 24.44° C - 1012.6 hPa 0 mm - - -
1787904540 24.44° C - 1012 hPa 0 mm - - -
1787904244 23.89° C - 1010.1 hPa 0 mm - - -
1787904240 23.89° C - 1010.1 hPa 0 mm - - -
1787903945 23.89° C - 1008.4 hPa 0 mm - - -
1787903940 23.89° C - 1008.4 hPa 0 mm - - -
1787903646 23.89° C - 1014.5 hPa 0 mm - - -
1787903639 23.89° C - 1014.5 hPa 0 mm - - -
1787903339 23.33° C - 1008.4 hPa 0 mm - - -
1787903038 23.89° C - 1009.9 hPa 0 mm - - -
1787902738 24.44° C - 1007.2 hPa 0 mm - - -
1787902437 23.33° C - 1014.3 hPa 0 mm - - -
1787902193 23.33° C - 1009.7 hPa 0 mm - - -
1787902137 23.33° C - 1009.7 hPa 0 mm - - -
1787901836 22.22° C - 1017.1 hPa 0 mm - - -

* Rain since midnight (hover to see other rain measurements)
** Current wind speed in m/s (hover to see current wind gust speed)